TimeCDT,TemperatureF,Dew PointF,Humidity,Sea Level PressureIn,VisibilityMPH,Wind Direction,Wind SpeedMPH,Gust SpeedMPH,PrecipitationIn,Events,Conditions,WindDirDegrees,DateUTC
12:53 AM,59.0,57.9,96,30.05,7.0,South,4.6,-,N/A,,Clear,170,2013-10-28 05:53:00
1:53 AM,57.9,57.0,97,30.04,2.5,Calm,Calm,-,N/A,,Clear,0,2013-10-28 06:53:00
2:01 AM,59.0,57.2,94,30.06,1.5,Calm,Calm,-,N/A,,Clear,0,2013-10-28 07:01:00
2:05 AM,59.0,57.2,94,30.06,3.0,Calm,Calm,-,N/A,,Clear,0,2013-10-28 07:05:00
2:37 AM,59.0,57.2,94,30.06,5.0,Calm,Calm,-,N/A,,Mostly Cloudy,0,2013-10-28 07:37:00
2:45 AM,59.0,57.2,94,30.06,6.0,Calm,Calm,-,N/A,,Mostly Cloudy,0,2013-10-28 07:45:00
2:53 AM,59.0,57.9,96,30.04,8.0,Calm,Calm,-,N/A,,Mostly Cloudy,0,2013-10-28 07:53:00
3:53 AM,59.0,57.9,96,30.05,8.0,Calm,Calm,-,N/A,,Overcast,0,2013-10-28 08:53:00
4:53 AM,59.0,57.0,93,30.06,10.0,Calm,Calm,-,N/A,,Partly Cloudy,0,2013-10-28 09:53:00
5:53 AM,59.0,57.0,93,30.07,9.0,Calm,Calm,-,N/A,,Mostly Cloudy,0,2013-10-28 10:53:00
6:53 AM,61.0,59.0,93,30.08,9.0,ESE,4.6,-,N/A,,Overcast,110,2013-10-28 11:53:00
7:15 AM,62.6,60.8,94,30.09,10.0,ESE,5.8,-,N/A,,Overcast,120,2013-10-28 12:15:00
7:53 AM,62.1,60.1,93,30.10,7.0,SE,3.5,-,0.01,,Overcast,140,2013-10-28 12:53:00
8:53 AM,63.0,61.0,93,30.12,8.0,SE,3.5,-,N/A,,Overcast,130,2013-10-28 13:53:00
9:27 AM,62.6,60.8,94,30.14,8.0,ESE,5.8,-,N/A,,Overcast,120,2013-10-28 14:27:00
9:53 AM,64.0,62.1,93,30.14,9.0,ESE,6.9,-,N/A,,Overcast,120,2013-10-28 14:53:00
10:07 AM,64.4,62.6,94,30.16,10.0,ESE,6.9,-,N/A,,Overcast,120,2013-10-28 15:07:00
10:53 AM,69.1,63.0,81,30.14,10.0,SSE,6.9,-,N/A,,Overcast,150,2013-10-28 15:53:00
11:03 AM,68.0,62.6,83,30.15,10.0,SE,8.1,-,N/A,,Overcast,130,2013-10-28 16:03:00
11:53 AM,71.1,63.0,75,30.14,10.0,SE,6.9,-,N/A,,Overcast,130,2013-10-28 16:53:00
12:08 PM,71.6,62.6,73,30.15,10.0,SE,8.1,-,N/A,,Overcast,130,2013-10-28 17:08:00
12:19 PM,71.6,64.4,78,30.15,10.0,SE,6.9,-,N/A,,Overcast,140,2013-10-28 17:19:00
12:53 PM,75.0,64.0,69,30.12,10.0,SSE,9.2,-,N/A,,Mostly Cloudy,150,2013-10-28 17:53:00
1:53 PM,75.0,64.0,69,30.09,10.0,SE,6.9,-,N/A,,Scattered Clouds,130,2013-10-28 18:53:00
2:37 PM,75.2,64.4,69,30.09,10.0,SE,8.1,-,N/A,,Mostly Cloudy,130,2013-10-28 19:37:00
2:53 PM,75.9,64.9,69,30.07,10.0,SE,8.1,-,N/A,,Overcast,130,2013-10-28 19:53:00
3:19 PM,75.2,64.4,69,30.08,10.0,SE,6.9,-,N/A,,Mostly Cloudy,140,2013-10-28 20:19:00
3:53 PM,77.0,64.9,66,30.06,10.0,SE,8.1,-,N/A,,Mostly Cloudy,140,2013-10-28 20:53:00
4:53 PM,75.9,64.9,69,30.06,10.0,SE,10.4,-,N/A,,Clear,130,2013-10-28 21:53:00
5:53 PM,73.9,64.9,73,30.06,10.0,ESE,11.5,-,N/A,,Clear,120,2013-10-28 22:53:00
6:53 PM,72.0,64.9,78,30.07,10.0,ESE,9.2,-,N/A,,Clear,120,2013-10-28 23:53:00
7:53 PM,70.0,64.9,84,30.08,10.0,ESE,11.5,-,N/A,,Clear,120,2013-10-29 00:53:00
8:53 PM,70.0,64.9,84,30.09,10.0,SE,10.4,-,N/A,,Clear,140,2013-10-29 01:53:00
9:53 PM,69.1,64.0,84,30.10,10.0,SE,11.5,-,N/A,,Clear,140,2013-10-29 02:53:00
10:53 PM,69.1,64.0,84,30.10,10.0,SE,10.4,-,N/A,,Clear,140,2013-10-29 03:53:00
11:53 PM,68.0,64.0,87,30.10,10.0,SE,12.7,-,N/A,,Partly Cloudy,140,2013-10-29 04:53:00